Time,TemperatureF,DewpointF,PressureIn,WindDirection,WindDirectionDegrees,WindSpeedMPH,WindSpeedGustMPH,Humidity,HourlyPrecipIn,Conditions,Clouds,dailyrainin,SoftwareType,DateUTC
2013-03-10 00:00:00,33.4,26.6,30.16,ESE,112,0.0,0.0,76,0.00,SCT,,0.00,WeatherDisplay:10.37,2013-03-10 05:00:00,
2013-03-10 00:02:00,33.4,26.6,30.16,ESE,112,0.0,0.0,76,0.00,SCT,,0.00,WeatherDisplay:10.37,2013-03-10 05:02:00,
2013-03-10 00:07:00,33.4,26.6,30.15,East,90,0.9,2.3,76,0.00,SCT,,0.00,WeatherDisplay:10.37,2013-03-10 05:07:00,
2013-03-10 00:12:00,33.6,26.5,30.15,NE,45,0.4,2.3,75,0.00,SCT,,0.00,WeatherDisplay:10.37,2013-03-10 05:12:00,
2013-03-10 00:17:00,33.6,26.5,30.15,ENE,68,0.0,0.0,75,0.00,SCT,,0.00,WeatherDisplay:10.37,2013-03-10 05:17:00,
2013-03-10 00:22:00,33.8,26.4,30.15,ENE,68,1.7,2.3,74,0.00,SCT,,0.00,WeatherDisplay:10.37,2013-03-10 05:22:00,
2013-03-10 00:27:00,34.0,26.3,30.15,NNW,338,0.0,1.1,73,0.00,SCT,,0.00,WeatherDisplay:10.37,2013-03-10 05:27:00,
2013-03-10 00:32:00,33.8,26.1,30.15,East,90,0.0,0.0,73,0.00,SCT,,0.00,WeatherDisplay:10.37,2013-03-10 05:32:00,
2013-03-10 00:37:00,33.8,26.1,30.15,NE,45,0.0,0.0,73,0.00,SCT,,0.00,WeatherDisplay:10.37,2013-03-10 05:37:00,
2013-03-10 00:42:00,34.2,26.1,30.15,ESE,112,2.9,3.5,72,0.00,SCT,,0.00,WeatherDisplay:10.37,2013-03-10 05:42:00,
2013-03-10 00:47:00,36.9,26.2,30.15,SSE,158,2.1,4.6,65,0.00,SCT,,0.00,WeatherDisplay:10.37,2013-03-10 05:47:00,
2013-03-10 00:52:00,37.6,26.1,30.15,SE,135,3.0,3.5,63,0.00,SCT,,0.00,WeatherDisplay:10.37,2013-03-10 05:52:00,
2013-03-10 00:57:00,38.5,25.8,30.15,SSE,158,3.0,3.5,60,0.00,SCT,,0.00,WeatherDisplay:10.37,2013-03-10 05:57:00,
2013-03-10 01:02:00,39.4,25.4,30.15,SSE,158,3.0,4.2,57,0.00,SCT,,0.00,WeatherDisplay:10.37,2013-03-10 06:02:00,
2013-03-10 01:07:00,40.3,25.8,30.15,SE,135,3.5,4.6,56,0.00,SCT,,0.00,WeatherDisplay:10.37,2013-03-10 06:07:00,
2013-03-10 01:12:00,39.0,25.0,30.15,ENE,68,1.2,1.2,57,0.00,OVC,,0.00,WeatherDisplay:10.37,2013-03-10 06:12:00,
2013-03-10 01:17:00,39.0,25.0,30.15,South,180,0.4,0.0,57,0.00,OVC,,0.00,WeatherDisplay:10.37,2013-03-10 06:17:00,
2013-03-10 01:22:00,38.8,24.9,30.15,South,180,0.0,0.0,57,0.00,OVC,,0.00,WeatherDisplay:10.37,2013-03-10 06:22:00,
2013-03-10 01:27:00,38.8,24.9,30.15,SE,135,0.8,2.7,57,0.00,OVC,,0.00,WeatherDisplay:10.37,2013-03-10 06:27:00,
2013-03-10 01:32:00,39.2,24.4,30.15,SE,135,1.2,2.7,55,0.00,OVC,,0.00,WeatherDisplay:10.37,2013-03-10 06:32:00,
2013-03-10 01:37:00,38.8,24.4,30.15,ESE,112,0.0,0.0,56,0.00,OVC,,0.00,WeatherDisplay:10.37,2013-03-10 06:37:00,
2013-03-10 01:42:00,38.5,24.6,30.14,West,270,0.0,0.0,57,0.00,OVC,,0.00,WeatherDisplay:10.37,2013-03-10 06:42:00,
2013-03-10 01:47:00,38.1,24.2,30.14,West,270,0.0,0.0,57,0.00,OVC,,0.00,WeatherDisplay:10.37,2013-03-10 06:47:00,
2013-03-10 01:52:00,38.1,24.2,30.14,ESE,112,0.1,1.7,57,0.00,OVC,,0.00,WeatherDisplay:10.37,2013-03-10 06:52:00,
2013-03-10 01:57:00,37.9,24.4,30.14,East,90,0.0,0.0,58,0.00,OVC,,0.00,WeatherDisplay:10.37,2013-03-10 06:57:00,
2013-03-10 03:02:00,37.8,24.3,30.14,West,270,0.0,0.0,58,0.00,OVC,,0.00,WeatherDisplay:10.37,2013-03-10 07:02:00,
2013-03-10 03:07:00,37.6,24.6,30.14,East,90,0.0,0.0,59,0.00,OVC,,0.00,WeatherDisplay:10.37,2013-03-10 07:07:00,
2013-03-10 03:12:00,37.2,24.2,30.14,WNW,292,0.0,0.0,59,0.00,OVC,,0.00,WeatherDisplay:10.37,2013-03-10 07:12:00,
2013-03-10 03:17:00,36.9,24.3,30.14,South,180,0.0,0.0,60,0.00,OVC,,0.00,WeatherDisplay:10.37,2013-03-10 07:17:00,
2013-03-10 03:22:00,36.7,24.9,30.14,ESE,112,1.4,1.7,62,0.00,BKN,,0.00,WeatherDisplay:10.37,2013-03-10 07:22:00,
2013-03-10 03:27:00,36.7,24.9,30.14,SE,135,2.2,2.3,62,0.00,BKN,,0.00,WeatherDisplay:10.37,2013-03-10 07:27:00,
2013-03-10 03:32:00,37.6,24.6,30.14,ESE,112,2.8,3.5,59,0.00,BKN,,0.00,WeatherDisplay:10.37,2013-03-10 07:32:00,
2013-03-10 03:37:00,38.7,24.8,30.14,South,180,2.3,2.7,57,0.00,BKN,,0.00,WeatherDisplay:10.37,2013-03-10 07:37:00,
2013-03-10 03:42:00,38.8,24.4,30.13,SE,135,2.8,3.5,56,0.00,BKN,,0.00,WeatherDisplay:10.37,2013-03-10 07:42:00,
2013-03-10 03:47:00,39.0,24.6,30.13,ESE,112,3.0,4.6,56,0.00,BKN,,0.00,WeatherDisplay:10.37,2013-03-10 07:47:00,
2013-03-10 03:52:00,39.2,24.8,30.12,SE,135,2.4,2.7,56,0.00,BKN,,0.00,WeatherDisplay:10.37,2013-03-10 07:52:00,
2013-03-10 03:57:00,39.2,24.4,30.12,SE,135,2.1,2.3,55,0.00,BKN,,0.00,WeatherDisplay:10.37,2013-03-10 07:57:00,
2013-03-10 04:02:00,39.4,24.6,30.12,ESE,112,1.4,2.3,55,0.00,BKN,,0.00,WeatherDisplay:10.37,2013-03-10 08:02:00,
2013-03-10 04:07:00,39.6,24.7,30.12,ESE,112,2.6,3.5,55,0.00,BKN,,0.00,WeatherDisplay:10.37,2013-03-10 08:07:00,
2013-03-10 04:12:00,39.9,24.6,30.12,ESE,112,2.2,2.3,54,0.00,BKN,,0.00,WeatherDisplay:10.37,2013-03-10 08:12:00,
2013-03-10 04:17:00,40.3,24.5,30.11,ESE,112,1.8,2.3,53,0.00,BKN,,0.00,WeatherDisplay:10.37,2013-03-10 08:17:00,
2013-03-10 04:22:00,40.8,24.5,30.11,SE,135,3.2,3.5,52,0.00,OVC,,0.00,WeatherDisplay:10.37,2013-03-10 08:22:00,
2013-03-10 04:27:00,41.4,24.1,30.10,SE,135,3.2,3.5,50,0.00,OVC,,0.00,WeatherDisplay:10.37,2013-03-10 08:27:00,
2013-03-10 04:32:00,41.5,23.7,30.10,SSE,158,2.0,2.3,49,0.00,OVC,,0.00,WeatherDisplay:10.37,2013-03-10 08:32:00,
2013-03-10 04:37:00,42.6,23.8,30.10,SW,225,1.7,3.5,47,0.00,OVC,,0.00,WeatherDisplay:10.37,2013-03-10 08:37:00,
2013-03-10 04:42:00,43.5,23.5,30.11,SSE,158,4.8,5.8,45,0.00,OVC,,0.00,WeatherDisplay:10.37,2013-03-10 08:42:00,
2013-03-10 04:47:00,44.6,22.3,30.11,SSE,158,2.9,4.6,41,0.00,OVC,,0.00,WeatherDisplay:10.37,2013-03-10 08:47:00,
2013-03-10 04:52:00,45.5,22.5,30.10,ESE,112,3.1,5.8,40,0.00,OVC,,0.00,WeatherDisplay:10.37,2013-03-10 08:52:00,
2013-03-10 04:57:00,46.4,21.5,30.10,SSE,158,2.9,4.6,37,0.00,OVC,,0.00,WeatherDisplay:10.37,2013-03-10 08:57:00,
2013-03-10 05:02:00,46.9,21.3,30.10,SSE,158,4.7,8.1,36,0.00,OVC,,0.00,WeatherDisplay:10.37,2013-03-10 09:02:00,
2013-03-10 05:07:00,47.5,21.2,30.10,SSE,158,4.2,6.9,35,0.00,OVC,,0.00,WeatherDisplay:10.37,2013-03-10 09:07:00,
2013-03-10 05:12:00,46.8,21.2,30.10,SSE,158,2.7,3.5,36,0.00,OVC,,0.00,WeatherDisplay:10.37,2013-03-10 09:12:00,
2013-03-10 05:17:00,46.9,21.3,30.10,NE,45,2.2,2.3,36,0.00,OVC,,0.00,WeatherDisplay:10.37,2013-03-10 09:17:00,
2013-03-10 05:22:00,46.9,21.3,30.10,NE,45,2.2,2.3,36,0.00,OVC,,0.00,WeatherDisplay:10.37,2013-03-10 09:22:00,
2013-03-10 05:27:00,46.9,21.3,30.10,NE,45,2.2,2.3,36,0.00,OVC,,0.00,WeatherDisplay:10.37,2013-03-10 09:27:00,
2013-03-10 05:32:00,46.9,21.3,30.10,NE,45,2.2,2.3,36,0.00,OVC,,0.00,WeatherDisplay:10.37,2013-03-10 09:32:00,
2013-03-10 05:37:00,46.9,21.3,30.10,NE,45,2.2,2.3,36,0.00,OVC,,0.00,WeatherDisplay:10.37,2013-03-10 09:37:00,
2013-03-10 05:42:00,46.9,21.3,30.10,NE,45,2.2,2.3,36,0.00,OVC,,0.00,WeatherDisplay:10.37,2013-03-10 09:42:00,
2013-03-10 05:47:00,46.9,21.3,30.10,NE,45,2.2,2.3,36,0.00,OVC,,0.00,WeatherDisplay:10.37,2013-03-10 09:47:00,
2013-03-10 05:52:00,46.9,21.3,30.10,NE,45,2.2,2.3,36,0.00,OVC,,0.00,WeatherDisplay:10.37,2013-03-10 09:52:00,
2013-03-10 05:57:00,46.9,21.3,30.10,NE,45,2.2,2.3,36,0.00,OVC,,0.00,WeatherDisplay:10.37,2013-03-10 09:57:00,
2013-03-10 06:02:00,46.9,21.3,30.10,NE,45,2.2,2.3,36,0.00,OVC,,0.00,WeatherDisplay:10.37,2013-03-10 10:02:00,
2013-03-10 06:07:00,46.9,21.3,30.10,NE,45,2.2,2.3,36,0.00,OVC,,0.00,WeatherDisplay:10.37,2013-03-10 10:07:00,
2013-03-10 06:12:00,46.9,21.3,30.10,NE,45,2.2,2.3,36,0.00,OVC,,0.00,WeatherDisplay:10.37,2013-03-10 10:12:00,
2013-03-10 06:17:00,46.9,21.3,30.10,NE,45,2.2,2.3,36,0.00,OVC,,0.00,WeatherDisplay:10.37,2013-03-10 10:17:00,
2013-03-10 06:22:00,46.9,21.3,30.10,NE,45,2.2,2.3,36,0.00,-RA,,0.00,WeatherDisplay:10.37,2013-03-10 10:22:00,
2013-03-10 06:27:00,46.9,21.3,30.10,NE,45,2.2,2.3,36,0.00,-RA,,0.00,WeatherDisplay:10.37,2013-03-10 10:27:00,
2013-03-10 06:32:00,46.9,21.3,30.10,NE,45,2.2,2.3,36,0.00,-RA,,0.00,WeatherDisplay:10.37,2013-03-10 10:32:00,
2013-03-10 06:37:00,46.9,21.3,30.10,NE,45,2.2,2.3,36,0.00,-RA,,0.00,WeatherDisplay:10.37,2013-03-10 10:37:00,
2013-03-10 06:42:00,46.9,21.3,30.10,NE,45,2.2,2.3,36,0.00,-RA,,0.00,WeatherDisplay:10.37,2013-03-10 10:42:00,
2013-03-10 06:47:00,46.9,21.3,30.10,NE,45,2.2,2.3,36,0.00,-RA,,0.00,WeatherDisplay:10.37,2013-03-10 10:47:00,
2013-03-10 06:52:00,46.9,21.3,30.10,NE,45,2.2,2.3,36,0.00,-RA,,0.00,WeatherDisplay:10.37,2013-03-10 10:52:00,
2013-03-10 06:57:00,46.9,21.3,30.10,NE,45,2.2,2.3,36,0.00,-RA,,0.00,WeatherDisplay:10.37,2013-03-10 10:57:00,
2013-03-10 07:02:00,46.9,21.3,30.10,NE,45,2.2,2.3,36,0.00,-RA,,0.00,WeatherDisplay:10.37,2013-03-10 11:02:00,
2013-03-10 07:07:00,46.9,21.3,30.10,NE,45,2.2,2.3,36,0.00,-RA,,0.00,WeatherDisplay:10.37,2013-03-10 11:07:00,
2013-03-10 07:12:00,46.9,21.3,30.10,NE,45,2.2,2.3,36,0.00,BKN,,0.00,WeatherDisplay:10.37,2013-03-10 11:12:00,
2013-03-10 07:17:00,46.9,21.3,30.10,NE,45,2.2,2.3,36,0.00,BKN,,0.00,WeatherDisplay:10.37,2013-03-10 11:17:00,
2013-03-10 07:22:00,46.9,21.3,30.10,NE,45,2.2,2.3,36,0.00,BKN,,0.00,WeatherDisplay:10.37,2013-03-10 11:22:00,
2013-03-10 07:27:00,46.9,21.3,30.10,NE,45,2.2,2.3,36,0.00,BKN,,0.00,WeatherDisplay:10.37,2013-03-10 11:27:00,
2013-03-10 07:32:00,46.9,21.3,30.10,NE,45,2.2,2.3,36,0.00,BKN,,0.00,WeatherDisplay:10.37,2013-03-10 11:32:00,
2013-03-10 07:37:00,46.9,21.3,30.10,NE,45,2.2,2.3,36,0.00,BKN,,0.00,WeatherDisplay:10.37,2013-03-10 11:37:00,
2013-03-10 07:42:00,46.9,21.3,30.10,NE,45,2.2,2.3,36,0.00,BKN,,0.00,WeatherDisplay:10.37,2013-03-10 11:42:00,
2013-03-10 07:47:00,46.9,21.3,30.10,NE,45,2.2,2.3,36,0.00,BKN,,0.00,WeatherDisplay:10.37,2013-03-10 11:47:00,
2013-03-10 07:52:00,46.9,21.3,30.10,NE,45,2.2,2.3,36,0.00,BKN,,0.00,WeatherDisplay:10.37,2013-03-10 11:52:00,
2013-03-10 07:57:00,46.9,21.3,30.10,NE,45,2.2,2.3,36,0.00,BKN,,0.00,WeatherDisplay:10.37,2013-03-10 11:57:00,
2013-03-10 08:02:00,46.9,21.3,30.10,NE,45,2.2,2.3,36,0.00,BKN,,0.00,WeatherDisplay:10.37,2013-03-10 12:02:00,
2013-03-10 08:07:00,46.9,21.3,30.10,NE,45,2.2,2.3,36,0.00,BKN,,0.00,WeatherDisplay:10.37,2013-03-10 12:07:00,
2013-03-10 08:12:00,46.9,21.3,30.10,NE,45,2.2,2.3,36,0.00,BKN,,0.00,WeatherDisplay:10.37,2013-03-10 12:12:00,
2013-03-10 08:17:00,46.9,21.3,30.10,NE,45,2.2,2.3,36,0.00,BKN,,0.00,WeatherDisplay:10.37,2013-03-10 12:17:00,
2013-03-10 08:22:00,46.9,21.3,30.10,NE,45,2.2,2.3,36,0.00,BKN,,0.00,WeatherDisplay:10.37,2013-03-10 12:22:00,
2013-03-10 08:27:00,46.9,21.3,30.10,NE,45,2.2,2.3,36,0.00,BKN,,0.00,WeatherDisplay:10.37,2013-03-10 12:27:00,
2013-03-10 08:32:00,46.9,21.3,30.10,NE,45,2.2,2.3,36,0.00,BKN,,0.00,WeatherDisplay:10.37,2013-03-10 12:32:00,
2013-03-10 08:37:00,46.9,21.3,30.10,NE,45,2.2,2.3,36,0.00,BKN,,0.00,WeatherDisplay:10.37,2013-03-10 12:37:00,
2013-03-10 08:42:00,46.9,21.3,30.10,NE,45,2.2,2.3,36,0.00,BKN,,0.00,WeatherDisplay:10.37,2013-03-10 12:42:00,
2013-03-10 08:47:00,46.9,21.3,30.10,NE,45,2.2,2.3,36,0.00,BKN,,0.00,WeatherDisplay:10.37,2013-03-10 12:47:00,
2013-03-10 08:52:00,46.9,21.3,30.10,NE,45,2.2,2.3,36,0.00,BKN,,0.00,WeatherDisplay:10.37,2013-03-10 12:52:00,
2013-03-10 08:57:00,46.9,21.3,30.10,NE,45,2.2,2.3,36,0.00,BKN,,0.00,WeatherDisplay:10.37,2013-03-10 12:57:00,
2013-03-10 09:02:00,46.9,21.3,30.10,NE,45,2.2,2.3,36,0.00,BKN,,0.00,WeatherDisplay:10.37,2013-03-10 13:02:00,
2013-03-10 09:07:00,46.9,21.3,30.10,NE,45,2.2,2.3,36,0.00,BKN,,0.00,WeatherDisplay:10.37,2013-03-10 13:07:00,
2013-03-10 09:12:00,46.9,21.3,30.10,NE,45,2.2,2.3,36,0.00,BKN,,0.00,WeatherDisplay:10.37,2013-03-10 13:12:00,
2013-03-10 09:17:00,46.9,21.3,30.10,NE,45,2.2,2.3,36,0.00,BKN,,0.00,WeatherDisplay:10.37,2013-03-10 13:17:00,
2013-03-10 09:22:00,46.9,21.3,30.10,NE,45,2.2,2.3,36,0.00,BKN,,0.00,WeatherDisplay:10.37,2013-03-10 13:22:00,
2013-03-10 09:27:00,46.9,21.3,30.10,NE,45,2.2,2.3,36,0.00,BKN,,0.00,WeatherDisplay:10.37,2013-03-10 13:27:00,
2013-03-10 09:32:00,46.9,21.3,30.10,NE,45,2.2,2.3,36,0.00,BKN,,0.00,WeatherDisplay:10.37,2013-03-10 13:32:00,
2013-03-10 09:37:00,46.9,21.3,30.10,NE,45,2.2,2.3,36,0.00,BKN,,0.00,WeatherDisplay:10.37,2013-03-10 13:37:00,
2013-03-10 09:42:00,46.9,21.3,30.10,NE,45,2.2,2.3,36,0.00,BKN,,0.00,WeatherDisplay:10.37,2013-03-10 13:42:00,
2013-03-10 09:47:00,46.9,21.3,30.10,NE,45,2.2,2.3,36,0.00,BKN,,0.00,WeatherDisplay:10.37,2013-03-10 13:47:00,
2013-03-10 09:52:00,46.9,21.3,30.10,NE,45,2.2,2.3,36,0.00,BKN,,0.00,WeatherDisplay:10.37,2013-03-10 13:52:00,
2013-03-10 09:57:00,46.9,21.3,30.10,NE,45,2.2,2.3,36,0.00,BKN,,0.00,WeatherDisplay:10.37,2013-03-10 13:57:00,
2013-03-10 10:02:00,46.9,21.3,30.10,NE,45,2.2,2.3,36,0.00,BKN,,0.00,WeatherDisplay:10.37,2013-03-10 14:02:00,
2013-03-10 10:07:00,46.9,21.3,30.10,NE,45,2.2,2.3,36,0.00,BKN,,0.00,WeatherDisplay:10.37,2013-03-10 14:07:00,
2013-03-10 10:12:00,46.9,21.3,30.10,NE,45,2.2,2.3,36,0.00,BKN,,0.00,WeatherDisplay:10.37,2013-03-10 14:12:00,
2013-03-10 10:17:00,46.9,21.3,30.10,NE,45,2.2,2.3,36,0.00,BKN,,0.00,WeatherDisplay:10.37,2013-03-10 14:17:00,
2013-03-10 10:22:00,46.9,21.3,30.10,NE,45,2.2,2.3,36,0.00,BKN,,0.00,WeatherDisplay:10.37,2013-03-10 14:22:00,
2013-03-10 10:27:00,46.9,21.3,30.10,NE,45,2.2,2.3,36,0.00,BKN,,0.00,WeatherDisplay:10.37,2013-03-10 14:27:00,
2013-03-10 10:32:00,46.9,21.3,30.10,NE,45,2.2,2.3,36,0.00,BKN,,0.00,WeatherDisplay:10.37,2013-03-10 14:32:00,
2013-03-10 10:37:00,46.9,21.3,30.10,NE,45,2.2,2.3,36,0.00,BKN,,0.00,WeatherDisplay:10.37,2013-03-10 14:37:00,
2013-03-10 10:42:00,46.9,21.3,30.10,NE,45,2.2,2.3,36,0.00,BKN,,0.00,WeatherDisplay:10.37,2013-03-10 14:42:00,
2013-03-10 10:47:00,46.9,21.3,30.10,NE,45,2.2,2.3,36,0.00,BKN,,0.00,WeatherDisplay:10.37,2013-03-10 14:47:00,
2013-03-10 10:52:00,46.9,21.3,30.10,NE,45,2.2,2.3,36,0.00,BKN,,0.00,WeatherDisplay:10.37,2013-03-10 14:52:00,
2013-03-10 10:57:00,46.9,21.3,30.10,NE,45,2.2,2.3,36,0.00,BKN,,0.00,WeatherDisplay:10.37,2013-03-10 14:57:00,
2013-03-10 11:02:00,46.9,21.3,30.10,NE,45,2.2,2.3,36,0.00,BKN,,0.00,WeatherDisplay:10.37,2013-03-10 15:02:00,
2013-03-10 11:07:00,46.9,21.3,30.10,NE,45,2.2,2.3,36,0.00,BKN,,0.00,WeatherDisplay:10.37,2013-03-10 15:07:00,
2013-03-10 11:12:00,46.9,21.3,30.10,NE,45,2.2,2.3,36,0.00,BKN,,0.00,WeatherDisplay:10.37,2013-03-10 15:12:00,
2013-03-10 11:17:00,46.9,21.3,30.10,NE,45,2.2,2.3,36,0.00,BKN,,0.00,WeatherDisplay:10.37,2013-03-10 15:17:00,
2013-03-10 11:22:00,46.9,21.3,30.10,NE,45,2.2,2.3,36,0.00,BKN,,0.00,WeatherDisplay:10.37,2013-03-10 15:22:00,
2013-03-10 11:27:00,46.9,21.3,30.10,NE,45,2.2,2.3,36,0.00,BKN,,0.00,WeatherDisplay:10.37,2013-03-10 15:27:00,
2013-03-10 11:32:00,46.9,21.3,30.10,NE,45,2.2,2.3,36,0.00,BKN,,0.00,WeatherDisplay:10.37,2013-03-10 15:32:00,
2013-03-10 11:37:00,46.9,21.3,30.10,NE,45,2.2,2.3,36,0.00,BKN,,0.00,WeatherDisplay:10.37,2013-03-10 15:37:00,
2013-03-10 11:42:00,46.9,21.3,30.10,NE,45,2.2,2.3,36,0.00,BKN,,0.00,WeatherDisplay:10.37,2013-03-10 15:42:00,
2013-03-10 11:47:00,46.9,21.3,30.10,NE,45,2.2,2.3,36,0.00,BKN,,0.00,WeatherDisplay:10.37,2013-03-10 15:47:00,
2013-03-10 11:52:00,46.9,21.3,30.10,NE,45,2.2,2.3,36,0.00,BKN,,0.00,WeatherDisplay:10.37,2013-03-10 15:52:00,
2013-03-10 11:57:00,46.9,21.3,30.10,NE,45,2.2,2.3,36,0.00,BKN,,0.00,WeatherDisplay:10.37,2013-03-10 15:57:00,
2013-03-10 12:02:00,46.9,21.3,30.10,NE,45,2.2,2.3,36,0.00,BKN,,0.00,WeatherDisplay:10.37,2013-03-10 16:02:00,
2013-03-10 12:07:00,46.9,21.3,30.10,NE,45,2.2,2.3,36,0.00,BKN,,0.00,WeatherDisplay:10.37,2013-03-10 16:07:00,
2013-03-10 12:12:00,46.9,21.3,30.10,NE,45,2.2,2.3,36,0.00,BKN,,0.00,WeatherDisplay:10.37,2013-03-10 16:12:00,
2013-03-10 12:17:00,46.9,21.3,30.10,NE,45,2.2,2.3,36,0.00,BKN,,0.00,WeatherDisplay:10.37,2013-03-10 16:17:00,
2013-03-10 12:22:00,46.9,21.3,30.10,NE,45,2.2,2.3,36,0.00,BKN,,0.00,WeatherDisplay:10.37,2013-03-10 16:22:00,
2013-03-10 12:27:00,46.9,21.3,30.10,NE,45,2.2,2.3,36,0.00,BKN,,0.00,WeatherDisplay:10.37,2013-03-10 16:27:00,
2013-03-10 12:32:00,46.9,21.3,30.10,NE,45,2.2,2.3,36,0.00,BKN,,0.00,WeatherDisplay:10.37,2013-03-10 16:32:00,
2013-03-10 12:37:00,46.9,21.3,30.10,NE,45,2.2,2.3,36,0.00,BKN,,0.00,WeatherDisplay:10.37,2013-03-10 16:37:00,
2013-03-10 12:42:00,46.9,21.3,30.10,NE,45,2.2,2.3,36,0.00,BKN,,0.00,WeatherDisplay:10.37,2013-03-10 16:42:00,
2013-03-10 12:47:00,46.9,21.3,30.10,NE,45,2.2,2.3,36,0.00,BKN,,0.00,WeatherDisplay:10.37,2013-03-10 16:47:00,
2013-03-10 12:52:00,46.9,21.3,30.10,NE,45,2.2,2.3,36,0.00,BKN,,0.00,WeatherDisplay:10.37,2013-03-10 16:52:00,
2013-03-10 12:57:00,46.9,21.3,30.10,NE,45,2.2,2.3,36,0.00,BKN,,0.00,WeatherDisplay:10.37,2013-03-10 16:57:00,
2013-03-10 13:02:00,46.9,21.3,30.10,NE,45,2.2,2.3,36,0.00,BKN,,0.00,WeatherDisplay:10.37,2013-03-10 17:02:00,
2013-03-10 13:07:00,46.9,21.3,30.10,NE,45,2.2,2.3,36,0.00,BKN,,0.00,WeatherDisplay:10.37,2013-03-10 17:07:00,
2013-03-10 13:12:00,46.9,21.3,30.10,NE,45,2.2,2.3,36,0.00,BKN,,0.00,WeatherDisplay:10.37,2013-03-10 17:12:00,
2013-03-10 13:17:00,46.9,21.3,30.10,NE,45,2.2,2.3,36,0.00,BKN,,0.00,WeatherDisplay:10.37,2013-03-10 17:17:00,
2013-03-10 13:22:00,46.9,21.3,30.10,NE,45,2.2,2.3,36,0.00,BKN,,0.00,WeatherDisplay:10.37,2013-03-10 17:22:00,
2013-03-10 13:27:00,46.9,21.3,30.10,NE,45,2.2,2.3,36,0.00,BKN,,0.00,WeatherDisplay:10.37,2013-03-10 17:27:00,
2013-03-10 13:32:00,46.9,21.3,30.10,NE,45,2.2,2.3,36,0.00,BKN,,0.00,WeatherDisplay:10.37,2013-03-10 17:32:00,
2013-03-10 13:37:00,46.9,21.3,30.10,NE,45,2.2,2.3,36,0.00,BKN,,0.00,WeatherDisplay:10.37,2013-03-10 17:37:00,
2013-03-10 13:42:00,46.9,21.3,30.10,NE,45,2.2,2.3,36,0.00,BKN,,0.00,WeatherDisplay:10.37,2013-03-10 17:42:00,
2013-03-10 13:47:00,46.9,21.3,30.10,NE,45,2.2,2.3,36,0.00,BKN,,0.00,WeatherDisplay:10.37,2013-03-10 17:47:00,
2013-03-10 13:52:00,46.9,21.3,30.10,NE,45,2.2,2.3,36,0.00,BKN,,0.00,WeatherDisplay:10.37,2013-03-10 17:52:00,
2013-03-10 13:57:00,46.9,21.3,30.10,NE,45,2.2,2.3,36,0.00,BKN,,0.00,WeatherDisplay:10.37,2013-03-10 17:57:00,
2013-03-10 14:02:00,46.9,21.3,30.10,NE,45,2.2,2.3,36,0.00,BKN,,0.00,WeatherDisplay:10.37,2013-03-10 18:02:00,
2013-03-10 14:07:00,46.9,21.3,30.10,NE,45,2.2,2.3,36,0.00,BKN,,0.00,WeatherDisplay:10.37,2013-03-10 18:07:00,
2013-03-10 14:12:00,46.9,21.3,30.10,NE,45,2.2,2.3,36,0.00,BKN,,0.00,WeatherDisplay:10.37,2013-03-10 18:12:00,
2013-03-10 14:17:00,46.9,21.3,30.10,NE,45,2.2,2.3,36,0.00,BKN,,0.00,WeatherDisplay:10.37,2013-03-10 18:17:00,
2013-03-10 14:22:00,46.9,21.3,30.10,NE,45,2.2,2.3,36,0.00,BKN,,0.00,WeatherDisplay:10.37,2013-03-10 18:22:00,
2013-03-10 14:27:00,46.9,21.3,30.10,NE,45,2.2,2.3,36,0.00,BKN,,0.00,WeatherDisplay:10.37,2013-03-10 18:27:00,
2013-03-10 14:32:00,46.9,21.3,30.10,NE,45,2.2,2.3,36,0.00,BKN,,0.00,WeatherDisplay:10.37,2013-03-10 18:32:00,
2013-03-10 14:37:00,46.9,21.3,30.10,NE,45,2.2,2.3,36,0.00,BKN,,0.00,WeatherDisplay:10.37,2013-03-10 18:37:00,
2013-03-10 14:42:00,46.9,21.3,30.10,NE,45,2.2,2.3,36,0.00,BKN,,0.00,WeatherDisplay:10.37,2013-03-10 18:42:00,
2013-03-10 14:47:00,46.9,21.3,30.10,NE,45,2.2,2.3,36,0.00,BKN,,0.00,WeatherDisplay:10.37,2013-03-10 18:47:00,
2013-03-10 14:52:00,46.9,21.3,30.10,NE,45,2.2,2.3,36,0.00,BKN,,0.00,WeatherDisplay:10.37,2013-03-10 18:52:00,
2013-03-10 14:57:00,46.9,21.3,30.10,NE,45,2.2,2.3,36,0.00,BKN,,0.00,WeatherDisplay:10.37,2013-03-10 18:57:00,
2013-03-10 15:02:00,46.9,21.3,30.10,NE,45,2.2,2.3,36,0.00,BKN,,0.00,WeatherDisplay:10.37,2013-03-10 19:02:00,
2013-03-10 15:07:00,46.9,21.3,30.10,NE,45,2.2,2.3,36,0.00,BKN,,0.00,WeatherDisplay:10.37,2013-03-10 19:07:00,
2013-03-10 15:12:00,46.9,21.3,30.10,NE,45,2.2,2.3,36,0.00,BKN,,0.00,WeatherDisplay:10.37,2013-03-10 19:12:00,
2013-03-10 15:17:00,46.9,21.3,30.10,NE,45,2.2,2.3,36,0.00,BKN,,0.00,WeatherDisplay:10.37,2013-03-10 19:17:00,
2013-03-10 15:22:00,46.9,21.3,30.10,NE,45,2.2,2.3,36,0.00,BKN,,0.00,WeatherDisplay:10.37,2013-03-10 19:22:00,
2013-03-10 15:27:00,46.9,21.3,30.10,NE,45,2.2,2.3,36,0.00,BKN,,0.00,WeatherDisplay:10.37,2013-03-10 19:27:00,
2013-03-10 15:32:00,46.9,21.3,30.10,NE,45,2.2,2.3,36,0.00,BKN,,0.00,WeatherDisplay:10.37,2013-03-10 19:32:00,
2013-03-10 15:37:00,46.9,21.3,30.10,NE,45,2.2,2.3,36,0.00,BKN,,0.00,WeatherDisplay:10.37,2013-03-10 19:37:00,
2013-03-10 15:42:00,46.9,21.3,30.10,NE,45,2.2,2.3,36,0.00,BKN,,0.00,WeatherDisplay:10.37,2013-03-10 19:42:00,
2013-03-10 15:47:00,46.9,21.3,30.10,NE,45,2.2,2.3,36,0.00,BKN,,0.00,WeatherDisplay:10.37,2013-03-10 19:47:00,
2013-03-10 15:52:00,46.9,21.3,30.10,NE,45,2.2,2.3,36,0.00,BKN,,0.00,WeatherDisplay:10.37,2013-03-10 19:52:00,
2013-03-10 15:57:00,46.9,21.3,30.10,NE,45,2.2,2.3,36,0.00,BKN,,0.00,WeatherDisplay:10.37,2013-03-10 19:57:00,
2013-03-10 16:02:00,46.9,21.3,30.10,NE,45,2.2,2.3,36,0.00,BKN,,0.00,WeatherDisplay:10.37,2013-03-10 20:02:00,
2013-03-10 16:07:00,46.9,21.3,30.10,NE,45,2.2,2.3,36,0.00,BKN,,0.00,WeatherDisplay:10.37,2013-03-10 20:07:00,
2013-03-10 16:12:00,46.9,21.3,30.10,NE,45,2.2,2.3,36,0.00,BKN,,0.00,WeatherDisplay:10.37,2013-03-10 20:12:00,
2013-03-10 16:17:00,46.9,21.3,30.10,NE,45,2.2,2.3,36,0.00,BKN,,0.00,WeatherDisplay:10.37,2013-03-10 20:17:00,
2013-03-10 16:22:00,46.9,21.3,30.10,NE,45,2.2,2.3,36,0.00,BKN,,0.00,WeatherDisplay:10.37,2013-03-10 20:22:00,
2013-03-10 16:32:00,46.9,21.3,30.10,SSE,158,0.0,8.8,36,0.00,CLR,,0.00,WeatherDisplay:10.37,2013-03-10 20:32:00,
2013-03-10 16:39:00,66.6,29.6,29.94,West,270,0.0,8.1,25,0.00,CLR,,0.00,WeatherDisplay:10.37,2013-03-10 20:39:00,
2013-03-10 16:44:00,66.9,29.9,29.94,NE,45,6.5,6.9,25,0.00,BKN,,0.00,WeatherDisplay:10.37,2013-03-10 20:44:00,
2013-03-10 16:49:00,66.7,29.7,29.94,West,270,0.0,9.2,25,0.00,CLR,,0.00,WeatherDisplay:10.37,2013-03-10 20:49:00,
2013-03-10 16:55:00,66.4,29.5,29.95,South,184,5.0,9.0,25,0.00,BKN,BKN,0.00,WeatherDisplay:10.37,2013-03-10 20:55:00,
2013-03-10 17:00:00,66.6,30.6,29.95,South,188,6.0,9.0,26,0.00,BKN,BKN,0.00,WeatherDisplay:10.37,2013-03-10 21:00:00,
2013-03-10 17:05:00,66.7,30.7,29.94,West,275,6.0,9.0,26,0.00,BKN,BKN,0.00,WeatherDisplay:10.37,2013-03-10 21:05:00,
2013-03-10 17:15:00,67.1,30.1,29.95,WSW,253,5.0,6.0,25,0.00,BKN,BKN,0.00,WeatherDisplay:10.37,2013-03-10 21:15:00,
2013-03-10 17:20:00,66.7,29.7,29.95,SW,221,6.0,8.0,25,0.00,BKN,BKN,0.00,WeatherDisplay:10.37,2013-03-10 21:20:00,
2013-03-10 17:25:00,66.7,29.7,29.95,WSW,241,6.0,6.0,25,0.00,BKN,BKN,0.00,WeatherDisplay:10.37,2013-03-10 21:25:00,
2013-03-10 17:30:00,66.7,29.7,29.95,North,7,6.0,6.0,25,0.00,BKN,BKN,0.00,WeatherDisplay:10.37,2013-03-10 21:30:00,
2013-03-10 17:35:00,66.7,29.7,29.95,North,0,6.0,6.0,25,0.00,BKN,BKN,0.00,WeatherDisplay:10.37,2013-03-10 21:35:00,
2013-03-10 17:40:00,66.0,30.1,29.95,NW,317,5.0,6.0,26,0.00,BKN,BKN,0.00,WeatherDisplay:10.37,2013-03-10 21:40:00,
2013-03-10 17:45:00,66.0,30.1,29.95,West,270,5.0,5.0,26,0.00,BKN,BKN,0.00,WeatherDisplay:10.37,2013-03-10 21:45:00,
2013-03-10 17:50:00,65.7,29.9,29.95,West,261,3.0,6.0,26,0.00,BKN,BKN,0.00,WeatherDisplay:10.37,2013-03-10 21:50:00,
2013-03-10 17:55:00,65.1,29.3,29.94,West,266,3.0,5.0,26,0.00,BKN,BKN,0.00,WeatherDisplay:10.37,2013-03-10 21:55:00,
2013-03-10 18:00:00,64.9,29.2,29.94,West,279,5.0,7.0,26,0.00,BKN,BKN,0.00,WeatherDisplay:10.37,2013-03-10 22:00:00,
2013-03-10 18:05:00,64.9,28.2,29.94,SW,215,5.0,9.0,25,0.00,BKN,BKN,0.00,WeatherDisplay:10.37,2013-03-10 22:05:00,
2013-03-10 18:10:00,65.1,28.4,29.94,SSW,210,8.0,13.0,25,0.00,BKN,BKN,0.00,WeatherDisplay:10.37,2013-03-10 22:10:00,
2013-03-10 18:15:00,64.8,28.1,29.94,SW,223,3.0,7.0,25,0.00,BKN,BKN,0.00,WeatherDisplay:10.37,2013-03-10 22:15:00,
2013-03-10 18:20:00,64.8,28.1,29.94,South,184,3.0,3.0,25,0.00,BKN,BKN,0.00,WeatherDisplay:10.37,2013-03-10 22:20:00,
2013-03-10 18:25:00,64.8,28.1,29.94,SSE,158,3.0,3.0,25,0.00,OVC,OVC,0.00,WeatherDisplay:10.37,2013-03-10 22:25:00,
2013-03-10 18:30:00,64.8,28.1,29.94,SSE,158,3.0,3.0,25,0.00,OVC,OVC,0.00,WeatherDisplay:10.37,2013-03-10 22:30:00,
2013-03-10 18:35:00,63.3,28.7,29.94,SSE,163,3.0,5.0,27,0.00,OVC,OVC,0.00,WeatherDisplay:10.37,2013-03-10 22:35:00,
2013-03-10 18:40:00,63.0,29.4,29.95,SSW,192,3.0,6.0,28,0.00,OVC,OVC,0.00,WeatherDisplay:10.37,2013-03-10 22:40:00,
2013-03-10 18:45:00,63.0,28.5,29.95,South,184,3.0,8.0,27,0.00,OVC,OVC,0.00,WeatherDisplay:10.37,2013-03-10 22:45:00,
2013-03-10 18:50:00,62.6,28.1,29.95,South,190,2.0,6.0,27,0.00,OVC,OVC,0.00,WeatherDisplay:10.37,2013-03-10 22:50:00,
2013-03-10 18:55:00,62.6,28.1,29.95,West,268,5.0,5.0,27,0.00,OVC,OVC,0.00,WeatherDisplay:10.37,2013-03-10 22:55:00,
2013-03-10 19:00:00,62.6,28.1,29.95,West,270,5.0,5.0,27,0.00,OVC,OVC,0.00,WeatherDisplay:10.37,2013-03-10 23:00:00,
2013-03-10 19:05:00,62.6,28.1,29.95,West,270,5.0,5.0,27,0.00,BKN,BKN,0.00,WeatherDisplay:10.37,2013-03-10 23:05:00,
2013-03-10 19:10:00,62.6,28.1,29.95,West,270,5.0,5.0,27,0.00,BKN,BKN,0.00,WeatherDisplay:10.37,2013-03-10 23:10:00,
2013-03-10 19:15:00,62.6,28.1,29.95,West,270,5.0,5.0,27,0.00,BKN,BKN,0.00,WeatherDisplay:10.37,2013-03-10 23:15:00,
2013-03-10 19:20:00,62.6,28.1,29.95,West,270,4.2,4.6,27,0.00,BKN,,0.00,WeatherDisplay:10.37,2013-03-10 23:20:00,
2013-03-10 19:25:00,62.6,28.1,29.95,West,270,4.2,4.6,27,0.00,BKN,,0.00,WeatherDisplay:10.37,2013-03-10 23:25:00,
2013-03-10 19:30:00,62.6,28.1,29.95,West,270,4.2,4.6,27,0.00,BKN,,0.00,WeatherDisplay:10.37,2013-03-10 23:30:00,
2013-03-10 19:35:00,62.6,28.1,29.95,West,270,4.2,4.6,27,0.00,BKN,,0.00,WeatherDisplay:10.37,2013-03-10 23:35:00,
2013-03-10 19:40:00,62.6,28.1,29.95,West,270,4.2,4.6,27,0.00,BKN,,0.00,WeatherDisplay:10.37,2013-03-10 23:40:00,
2013-03-10 19:45:00,62.6,28.1,29.95,West,270,4.2,4.6,27,0.00,BKN,,0.00,WeatherDisplay:10.37,2013-03-10 23:45:00,
2013-03-10 19:50:00,62.6,28.1,29.95,West,270,4.2,4.6,27,0.00,BKN,,0.00,WeatherDisplay:10.37,2013-03-10 23:50:00,
2013-03-10 19:55:00,62.6,28.1,29.95,West,270,4.2,4.6,27,0.00,BKN,,0.00,WeatherDisplay:10.37,2013-03-10 23:55:00,
2013-03-10 20:00:00,62.6,28.1,29.95,West,270,4.2,4.6,27,0.00,BKN,,0.00,WeatherDisplay:10.37,2013-03-11 00:00:00,
2013-03-10 20:05:00,62.6,28.1,29.95,West,270,4.2,4.6,27,0.00,BKN,,0.00,WeatherDisplay:10.37,2013-03-11 00:05:00,
2013-03-10 20:10:00,62.6,28.1,29.95,West,270,4.2,4.6,27,0.00,BKN,,0.00,WeatherDisplay:10.37,2013-03-11 00:10:00,
2013-03-10 20:15:00,62.6,28.1,29.95,West,270,4.2,4.6,27,0.00,BKN,,0.00,WeatherDisplay:10.37,2013-03-11 00:15:00,
2013-03-10 20:20:00,62.6,28.1,29.95,West,270,4.2,4.6,27,0.00,BKN,,0.00,WeatherDisplay:10.37,2013-03-11 00:20:00,
2013-03-10 20:25:00,62.6,28.1,29.95,West,270,4.2,4.6,27,0.00,BKN,,0.00,WeatherDisplay:10.37,2013-03-11 00:25:00,
2013-03-10 20:30:00,62.6,28.1,29.95,West,270,4.2,4.6,27,0.00,BKN,,0.00,WeatherDisplay:10.37,2013-03-11 00:30:00,
2013-03-10 20:35:00,62.6,28.1,29.95,West,270,4.2,4.6,27,0.00,BKN,,0.00,WeatherDisplay:10.37,2013-03-11 00:35:00,
2013-03-10 20:40:00,62.6,28.1,29.95,West,270,4.2,4.6,27,0.00,BKN,,0.00,WeatherDisplay:10.37,2013-03-11 00:40:00,
2013-03-10 20:45:00,62.6,28.1,29.95,West,270,4.2,4.6,27,0.00,BKN,,0.00,WeatherDisplay:10.37,2013-03-11 00:45:00,
2013-03-10 20:50:00,62.6,28.1,29.95,West,270,4.2,4.6,27,0.00,BKN,,0.00,WeatherDisplay:10.37,2013-03-11 00:50:00,
2013-03-10 20:55:00,62.6,28.1,29.95,West,270,4.2,4.6,27,0.00,BKN,,0.00,WeatherDisplay:10.37,2013-03-11 00:55:00,
2013-03-10 21:00:00,62.6,28.1,29.95,West,270,4.2,4.6,27,0.00,BKN,,0.00,WeatherDisplay:10.37,2013-03-11 01:00:00,
2013-03-10 21:05:00,62.6,28.1,29.95,West,270,4.2,4.6,27,0.00,BKN,,0.00,WeatherDisplay:10.37,2013-03-11 01:05:00,
2013-03-10 21:10:00,62.6,28.1,29.95,West,270,4.2,4.6,27,0.00,BKN,,0.00,WeatherDisplay:10.37,2013-03-11 01:10:00,
2013-03-10 21:15:00,62.6,28.1,29.95,West,270,4.2,4.6,27,0.00,BKN,,0.00,WeatherDisplay:10.37,2013-03-11 01:15:00,
2013-03-10 21:20:00,62.6,28.1,29.95,West,270,4.2,4.6,27,0.00,BKN,,0.00,WeatherDisplay:10.37,2013-03-11 01:20:00,
2013-03-10 21:25:00,62.6,28.1,29.95,West,270,4.2,4.6,27,0.00,BKN,,0.00,WeatherDisplay:10.37,2013-03-11 01:25:00,
2013-03-10 21:30:00,62.6,28.1,29.95,West,270,4.2,4.6,27,0.00,BKN,,0.00,WeatherDisplay:10.37,2013-03-11 01:30:00,
2013-03-10 21:35:00,62.6,28.1,29.95,West,270,4.2,4.6,27,0.00,BKN,,0.00,WeatherDisplay:10.37,2013-03-11 01:35:00,
2013-03-10 21:40:00,62.6,28.1,29.95,West,270,4.2,4.6,27,0.00,BKN,,0.00,WeatherDisplay:10.37,2013-03-11 01:40:00,
2013-03-10 21:45:00,62.6,28.1,29.95,West,270,4.2,4.6,27,0.00,BKN,,0.00,WeatherDisplay:10.37,2013-03-11 01:45:00,
2013-03-10 21:50:00,62.6,28.1,29.95,West,270,4.2,4.6,27,0.00,BKN,,0.00,WeatherDisplay:10.37,2013-03-11 01:50:00,
2013-03-10 21:55:00,62.6,28.1,29.95,West,270,4.2,4.6,27,0.00,BKN,,0.00,WeatherDisplay:10.37,2013-03-11 01:55:00,
2013-03-10 22:00:00,62.6,28.1,29.95,West,270,4.2,4.6,27,0.00,BKN,,0.00,WeatherDisplay:10.37,2013-03-11 02:00:00,
2013-03-10 22:05:00,62.6,28.1,29.95,West,270,4.2,4.6,27,0.00,OVC,,0.00,WeatherDisplay:10.37,2013-03-11 02:05:00,
2013-03-10 22:10:00,62.6,28.1,29.95,West,270,4.2,4.6,27,0.00,OVC,,0.00,WeatherDisplay:10.37,2013-03-11 02:10:00,
2013-03-10 22:15:00,62.6,28.1,29.95,West,270,4.2,4.6,27,0.00,OVC,,0.00,WeatherDisplay:10.37,2013-03-11 02:15:00,
2013-03-10 22:20:00,62.6,28.1,29.95,West,270,4.2,4.6,27,0.00,OVC,,0.00,WeatherDisplay:10.37,2013-03-11 02:20:00,
2013-03-10 22:25:00,62.6,28.1,29.95,West,270,4.2,4.6,27,0.00,OVC,,0.00,WeatherDisplay:10.37,2013-03-11 02:25:00,
2013-03-10 22:30:00,62.6,28.1,29.95,West,270,4.2,4.6,27,0.00,OVC,,0.00,WeatherDisplay:10.37,2013-03-11 02:30:00,
2013-03-10 22:35:00,62.6,28.1,29.95,West,270,4.2,4.6,27,0.00,OVC,,0.00,WeatherDisplay:10.37,2013-03-11 02:35:00,
2013-03-10 22:40:00,62.6,28.1,29.95,West,270,4.2,4.6,27,0.00,OVC,,0.00,WeatherDisplay:10.37,2013-03-11 02:40:00,
2013-03-10 22:45:00,62.6,28.1,29.95,West,270,4.2,4.6,27,0.00,OVC,,0.00,WeatherDisplay:10.37,2013-03-11 02:45:00,
2013-03-10 22:50:00,62.6,28.1,29.95,West,270,4.2,4.6,27,0.00,OVC,,0.00,WeatherDisplay:10.37,2013-03-11 02:50:00,
2013-03-10 22:55:00,62.6,28.1,29.95,West,270,4.2,4.6,27,0.00,OVC,,0.00,WeatherDisplay:10.37,2013-03-11 02:55:00,
2013-03-10 23:00:00,62.6,28.1,29.95,West,270,4.2,4.6,27,0.00,OVC,,0.00,WeatherDisplay:10.37,2013-03-11 03:00:00,
2013-03-10 23:05:00,62.6,28.1,29.95,West,270,4.2,4.6,27,0.00,OVC,,0.00,WeatherDisplay:10.37,2013-03-11 03:05:00,
2013-03-10 23:10:00,62.6,28.1,29.95,West,270,4.2,4.6,27,0.00,OVC,,0.00,WeatherDisplay:10.37,2013-03-11 03:10:00,
2013-03-10 23:15:00,62.6,28.1,29.95,West,270,4.2,4.6,27,0.00,OVC,,0.00,WeatherDisplay:10.37,2013-03-11 03:15:00,
2013-03-10 23:20:00,62.6,28.1,29.95,West,270,4.2,4.6,27,0.00,OVC,,0.00,WeatherDisplay:10.37,2013-03-11 03:20:00,
2013-03-10 23:25:00,62.6,28.1,29.95,West,270,4.2,4.6,27,0.00,BKN,,0.00,WeatherDisplay:10.37,2013-03-11 03:25:00,
2013-03-10 23:30:00,62.6,28.1,29.95,West,270,4.2,4.6,27,0.00,BKN,,0.00,WeatherDisplay:10.37,2013-03-11 03:30:00,
2013-03-10 23:35:00,62.6,28.1,29.95,West,270,4.2,4.6,27,0.00,BKN,,0.00,WeatherDisplay:10.37,2013-03-11 03:35:00,
2013-03-10 23:40:00,62.6,28.1,29.95,West,270,4.2,4.6,27,0.00,BKN,,0.00,WeatherDisplay:10.37,2013-03-11 03:40:00,
2013-03-10 23:45:00,62.6,28.1,29.95,West,270,4.2,4.6,27,0.00,BKN,,0.00,WeatherDisplay:10.37,2013-03-11 03:45:00,
2013-03-10 23:50:00,62.6,28.1,29.95,West,270,4.2,4.6,27,0.00,BKN,,0.00,WeatherDisplay:10.37,2013-03-11 03:50:00,
2013-03-10 23:55:00,62.6,28.1,29.95,West,270,4.2,4.6,27,0.00,BKN,,0.00,WeatherDisplay:10.37,2013-03-11 03:55:00,